Regional Weather Roundup
Issued by NWS

Home | Current Version | Previous Version | Graphics & Text | Print | Product List | Glossary On
Versions: 1 2 3 4 5 6 7 8 9 10 11 12 13 14 15 16 17 18 19 20 21 22 23 24 25 26 27 28 29 30 31 32 33 34 35 36 37 38 39 40 41 42 43 44 45 46 47 48 49 50
000
ASUS45 KABQ 262201
RWRNM
NEW MEXICO REGIONAL WEATHER ROUNDUP
NATIONAL WEATHER SERVICE ALBUQUERQUE NM
400 PM MDT TUE JUL 26 2016

NOTE: "FAIR" MEANS FEW OR NO CLOUDS BELOW 12,000 FEET AGL WITH NO
       SIGNIFICANT WEATHER OR OBSTRUCTIONS TO VISION.

      THIS PRODUCT IS RELEASED AS TWO VERSIONS.  ONE VERSION NEAR
      THE TOP OF THE HOUR CONTAINING PRELIMINARY DATA FROM ALBUQUERQUE
      AND OTHER STATIONS.  A FINAL VERSION WITH ADDITIONAL DATA IS
      ISSUED ABOUT 10 MINUTES AFTER THE HOUR.

NMZ501-503-504-510>518-262300-
NORTHWEST PLATEAU/NORTHCENTRAL MOUNTAINS

CITY           SKY/WX    TMP DP  RH WIND       PRES   REMARKS
FARMINGTON     FAIR      91  43  18 VRB6G20   30.12F
LOS ALAMOS     PTSUNNY   74  49  41 SW8       30.29R
SANTA FE       PTSUNNY   85  49  28 NW17G25   30.19S
TAOS           FAIR      82  45  26 E18       30.29R
ANGEL FIRE     DRIZZLE   59  53  80 S8        30.45R

$$
NMZ402-403-502-505>509-262300-
WESTCENTRAL MOUNTAINS/SOUTHWEST MOUNTAINS

CITY           SKY/WX    TMP DP  RH WIND       PRES   REMARKS
GALLUP         FAIR      82  49  31 E21       30.25F
GRANTS         FAIR      77  53  43 NW10      30.26F
SILVER CITY    PTSUNNY   90  48  23 S7        30.12F

$$
NMZ407-409-411-412-262300-
SOUTHERN DESERTS

CITY           SKY/WX    TMP DP  RH WIND       PRES   REMARKS
LORDSBURG      FAIR      91  50  24 SW5       30.01F
DEMING         FAIR      97  51  21 SE7       30.02
LAS CRUCES     FAIR      92  51  24 E12       30.05F
HOLLOMAN AFB   FAIR      94  49  21 W2        30.01F
ALAMOGORDO     FAIR      93  50  22 NW6       30.04F
T OR C         FAIR      87  53  31 W15       30.09S

$$
NMZ519>523-262300-
CENTRAL VALLEYS/CENTRAL HIGHLANDS

CITY           SKY/WX    TMP DP  RH WIND       PRES   REMARKS
ALBUQUERQUE    FAIR      89  51  27 VRB5      30.11F
DOUBLE EAGLE   PTSUNNY   91  52  25 VRB3      30.16F
MORIARTY ARPT  FAIR      89  45  21 S13       30.19F
CLINES CORNERS FAIR      82  50  32 VRB7      30.26F
BELEN          FAIR      91  45  20 N5        30.10F
SOCORRO        FAIR      86  51  30 W15       30.09F

$$
NMZ524>526-539-540-262300-
SOUTHCENTRAL MOUNTAINS

CITY           SKY/WX    TMP DP  RH WIND       PRES   REMARKS
RUIDOSO          N/A     77  52  41 SE13G18   30.28F

$$
NMZ527>531-262300-
NORTHEAST HIGHLANDS/NORTHEAST PLAINS

CITY           SKY/WX    TMP DP  RH WIND       PRES   REMARKS
LAS VEGAS      PTSUNNY   78  51  38 SE17      30.25R
RATON          FAIR      78  43  28 S14       30.19S
CLAYTON        FAIR      91  52  26 S10       30.11F

$$
NMZ532>537-262300-
EASTCENTRAL PLAINS

CITY           SKY/WX    TMP DP  RH WIND       PRES   REMARKS
TUCUMCARI      FAIR      95  51  22 SE8       30.02F
CANNON AFB     NOT AVBL
CLOVIS AIRPORT FAIR      88  54  31 S7        30.07F

$$
NMZ028-029-538-262300-
SOUTHEAST PLAINS

CITY           SKY/WX    TMP DP  RH WIND       PRES   REMARKS
ROSWELL        FAIR      87  58  37 W22       30.02F
ARTESIA        FAIR      90  57  33 W21       30.02F
CARLSBAD       FAIR      94  61  33 E13G21    29.98F
HOBBS          PTSUNNY   77  66  69 S12       30.06F


$$



USA.gov is the U.S. government's official web portal to all federal, state and local government web resources and services.